Regional Weather Roundup
Issued by NWS

Home | Current Version | Previous Version | Text Only | Print | Product List | Glossary Off
Versions: 1 2 3 4 5 6 7 8 9 10 11 12 13 14 15 16 17 18 19 20 21 22 23 24 25 26 27

000
ASUS45 KCYS 301910
RWRWY

WYOMING REGIONAL WEATHER ROUNDUP
NATIONAL WEATHER SERVICE CHEYENNE WY
100 PM MDT MON MAY 30 2016

NOTE:  "FAIR" INDICATES FEW OR NO CLOUDS BELOW 12,000 FEET
WITH NO SIGNIFICANT WEATHER AND/OR OBSTRUCTIONS TO VISIBILITY.

WYZ001-302000-
YELLOWSTONE NATIONAL PARK

CITY           SKY/WX    TMP DP  RH WIND       PRES   REMARKS
LK YELLOWSTONE   N/A     53  28  38 W8G16     30.17S
W YELLOWSTONE  NOT AVBL

$$
WYZ002>013-054>058-071-098>099-302000-
NORTHERN WYOMING

CITY           SKY/WX    TMP DP  RH WIND       PRES   REMARKS
JACKSON        PTSUNNY   59  30  33 W12G17    30.16R
CODY           PTSUNNY   55  48  76 NE12      30.04F
GREYBULL       FAIR      70  38  31 W5G16     29.95F
WORLAND        FAIR      70  38  31 VRB3      29.97F
SHERIDAN       PTSUNNY   62  48  60 VRB3      30.01F
BUFFALO        PTSUNNY   59  44  57 N10       30.03F
GILLETTE       FAIR      63  46  54 NE14      29.99F
HULETT         LGT RAIN  59  46  63 N14       30.01R
NEWCASTLE      FAIR      68  43  40 NW22G32   29.95R

$$
WYZ014>020-022>026-101>103-302000-
CENTRAL WYOMING

CITY           SKY/WX    TMP DP  RH WIND       PRES   REMARKS
BIG PINEY      PTSUNNY   61  29  29 NW17G23   30.16F
PINEDALE       MOCLDY    57  32  38 W8G20     30.16F
DUBOIS         FAIR      61  27  27 N16G24    30.09S
LANDER         CLOUDY    67  34  29 NW7       30.00F
RIVERTON       PTSUNNY   70  33  25 SW8G23    30.01F
CASPER         FAIR      65  42  43 NE14      30.03S
DOUGLAS          N/A    N/A N/A N/A MISG      30.03R

$$
WYZ021-027>030-104>119-302000-
SOUTHERN WYOMING

CITY           SKY/WX    TMP DP  RH WIND       PRES   REMARKS
EVANSTON       FAIR      63  35  35 NW18      30.20S
KEMMERER         N/A     61  36  39 W22G30    30.19F
FORT BRIDGER   PTCLDY    63  34  34 W12G23    30.21F
ROCK SPRINGS   PTSUNNY   64  33  31 W14G23    30.14F
DIXON          FAIR      64  38  39 W5        30.17F
RAWLINS        FAIR      66  29  24 W15G30    30.11F
SARATOGA       MOCLDY    63  36  36 SW12G21   30.15F
LARAMIE        FAIR      64  38  38 W23G33    30.10F
CHEYENNE       TSTM      61  44  53 E6        30.06R
TORRINGTON     FAIR      75  41  29 W13G20    29.94F
PINE BLUFFS    FAIR      68  41  37 N17       30.00F THUNDER

$$




USA.gov is the U.S. government's official web portal to all federal, state and local government web resources and services.